This is the latest recevied weather packets stored in our database for station/object IV3CGM-13. If no packets are shown the sender has not sent any weather packets the latest 10 day(s).
| Time | Temp. | Humidity | Pressure | Rain* | Wind** | Luminosity | Snow |
|---|---|---|---|---|---|---|---|
| 1777473328 | 13.33° C | 96% | 1017.9 hPa | 0 mm | - | 94 W/m² | - |
| 1777472640 | 13.33° C | 96% | 1017.8 hPa | 0 mm | - | 138 W/m² | - |
| 1777471952 | 13.33° C | 96% | 1017.8 hPa | 0 mm | - | 128 W/m² | - |
| 1777471265 | 13.33° C | 97% | 1017.9 hPa | 0 mm | - | 169 W/m² | - |
| 1777470590 | 13.33° C | 96% | 1018 hPa | 0 mm | - | 153 W/m² | - |
| 1777469889 | 13.89° C | 96% | 1018 hPa | 0 mm | - | 138 W/m² | - |
| 1777469202 | 13.89° C | 94% | 1018 hPa | 0 mm | - | 114 W/m² | - |
| 1777468514 | 14.44° C | 90% | 1018.1 hPa | 0.51 mm | - | 152 W/m² | - |
| 1777467828 | 13.89° C | 89% | 1018.1 hPa | 0.51 mm | - | 176 W/m² | - |
| 1777467090 | 14.44° C | 88% | 1018.2 hPa | 0.51 mm | - | 179 W/m² | - |
| 1777466389 | 14.44° C | 89% | 1018.2 hPa | 0.76 mm | - | 211 W/m² | - |
| 1777465702 | 13.89° C | 91% | 1018.2 hPa | 0.76 mm | - | 173 W/m² | - |
| 1777465014 | 13.89° C | 92% | 1018.3 hPa | 0.51 mm | - | 130 W/m² | - |
| 1777464327 | 13.33° C | 95% | 1018.2 hPa | 0.51 mm | - | 132 W/m² | - |
| 1777463590 | 13.33° C | 94% | 1018.2 hPa | 0.51 mm | - | 140 W/m² | - |
| 1777462889 | 13.33° C | 93% | 1018.3 hPa | 0 mm | - | 107 W/m² | - |
| 1777462202 | 13.33° C | 94% | 1018.2 hPa | 0 mm | - | 89 W/m² | - |
| 1777461514 | 13.89° C | 92% | 1018.3 hPa | 0.51 mm | - | 93 W/m² | - |
| 1777460827 | 13.89° C | 87% | 1018.2 hPa | 0.51 mm | - | 158 W/m² | - |
| 1777460090 | 13.89° C | 84% | 1018.1 hPa | 0.51 mm | - | 151 W/m² | - |
| 1777459389 | 13.89° C | 86% | 1018 hPa | 0.51 mm | - | 129 W/m² | - |
| 1777458702 | 13.89° C | 86% | 1018.1 hPa | 0.51 mm | - | 179 W/m² | - |
| 1777458014 | 13.89° C | 86% | 1018.3 hPa | 0 mm | - | 135 W/m² | - |
| 1777457327 | 13.89° C | 87% | 1018.3 hPa | 0 mm | - | 107 W/m² | - |
| 1777456590 | 13.89° C | 88% | 1018.2 hPa | 0 mm | - | 133 W/m² | - |
* Rain latest hour (hover to see other rain measurements)
** Current wind speed in m/s (hover to see current wind gust speed)